Tracking 28792 objects as of 25-Apr-2024
HD Live streaming from Space Station
objects crossing your sky now

COSMOS 1703

Track COSMOS 1703 now!
10-day predictions
COSMOS 1703 is classified as:


NORAD ID: 16262
Int'l Code: 1985-108A
Perigee: 498.2 km
Apogee: 508.7 km
Inclination: 82.5 °
Period: 94.5 minutes
Semi major axis: 6874 km
RCS: 6.9173 m2 (large)
Launch date: November 22, 1985
Source: Commonwealth of Independent States (former USSR) (CIS)
Launch site: PLESETSK MISSILE AND SPACE COMPLEX (PKMTR)
Your satellite tracking list
Your tracking list is empty




NASA's NSSDC Master Catalog

Two Line Element Set (TLE):
1 16262U 85108A   24115.89931729  .00014051  00000-0  59256-3 0  9991
2 16262  82.4684 300.9893 0007650 283.3444  76.6940 15.23169174 97084
Source of the keplerian elements: AFSPC